www.pogodaiklimat.ru

Погода и климат >> Архив погоды >> Иран >> Бендер-Дейер


ПОГОДА в Бендер-Дейере

  • Прогноз погоды в Бендер-Дейере
  • Монитор погоды в Бендер-Дейере

АРХИВ ПОГОДЫ в Бендер-Дейере

Время (UTC), дата Ветер
(напр.,м/с)
 
Видим.   Явления Облачность Т
(С)
Тd
(С)
f
(%)
Тe
(С)
Тes
(С)
Комфортность P
(гПа)
Po
(гПа)
Тmin
(С)
Tmax
(С)
R
(мм)
R24
(мм)
S
(см)
03 13.06 СЗ 7 8000 м пыльный позёмок ясно +36.7 +10.0 20 +35 +36 очень
жарко
998.3 997.9 +31.2
06 13.06 СЗ 6 8000 м пыль ясно +42.2 +30.1 51 +67 +73 опасность
перегрева
999.1 998.7
09 13.06 ЮВ 6 8000 м пыль ясно +36.3 +27.2 60 +55 +63 опасность
перегрева
999.0 998.6
12 13.06 ЮВ 8 8000 м пыльный позёмок ясно +35.3 +30.1 75 +63 +65 опасность
перегрева
997.8 997.4
15 13.06 Ю 2 8000 м пыль ясно +34.8 +27.7 67 +55 +55 опасность
перегрева
998.3 997.9 +45.2
18 13.06 ЮВ 2 8000 м дымка ясно +32.5 +30.2 88 +60 +60 опасность
перегрева
999.3 998.9
21 13.06 штиль 0 8000 м мгла ясно +33.0 +17.2 39 +37 +37 очень
душно
998.4 998.0
00 14.06 СЗ 5 8000 м мгла ясно +35.2 +12.8 26 +35 +35 очень
жарко
997.1 996.7
03 14.06 СЗ 4 10 км ясно +35.5 +13.6 27 +36 +37 очень
жарко
997.9 997.5 +31.4
06 14.06 СЗ 3 10 км ясно +43.1 +30.1 49 +68 +80 опасность
перегрева
999.1 998.7
09 14.06 СЗ 5 8000 м пыль ясно +47.3 +9.4 11 +46 +57 опасность
перегрева
998.1 997.7
12 14.06 СЗ 7 8000 м пыльный позёмок ясно +48.1 +30.1 38 +71 +74 опасность
перегрева
996.1 995.7
15 14.06 СЗ 6 8000 м пыль ясно +45.4 +11.6 14 +45 +45 опасность
перегрева
996.4 996.0 +48.2
18 14.06 СЗ 5 7000 м пыль ясно +42.2 +12.9 18 +42 +42 опасность
перегрева
997.9 997.5
21 14.06 СЗ 4 7000 м пыль ясно +37.9 +15.6 27 +40 +40 очень
душно
997.6 997.2
00 15.06 СЗ 5 7000 м пыль ясно +36.4 +17.0 32 +39 +39 очень
душно
996.8 996.4
03 15.06 СЗ 4 7000 м пыль ясно +36.3 +14.3 27 +37 +38 очень
жарко
997.9 997.5 +34.1
06 15.06 ЮВ 3 7000 м мгла ясно +34.5 +30.1 78 +62 +74 опасность
перегрева
999.2 998.8
09 15.06 ЮВ 6 8000 м дымка ясно +34.7 +30.7 80 +64 +73 опасность
перегрева
998.8 998.4
12 15.06 ЮВ 7 8000 м дымка ясно +34.5 +30.1 78 +62 +65 опасность
перегрева
998.5 998.1
15 15.06 ЮВ 2 8000 м мгла ясно +33.9 +29.5 78 +59 +59 опасность
перегрева
998.6 998.2 +39.6
18 15.06 Ю 1 8000 м дымка ясно +32.3 +28.6 81 +55 +55 опасность
перегрева
999.6 999.2
21 15.06 Ю 1 8000 м дымка ясно +31.8 +29.7 89 +57 +57 опасность
перегрева
999.1 998.7
00 16.06 В 2 8000 м дымка ясно +29.9 +27.0 84 +47 +47 опасность
перегрева
997.6 997.2
03 16.06 СВ 1 900 м туман поземный ясно +30.2 +28.5 91 +51 +54 опасность
перегрева
998.9 998.5 +28.8
06 16.06 ЮВ 2 4000 м дымка ясно +32.1 1000.0 999.6
09 16.06 Ю 4 6000 м мгла ясно +34.5 +27.2 66 +53 +68 опасность
перегрева
1000.3 999.9
12 16.06 Ю 3 6000 м мгла ясно +34.7 999.4 999.0
15 16.06 штиль 0 8000 м мгла 1/0
[Ci fib]
+33.8 +28.0 72 +55 +55 опасность
перегрева
998.9 998.5 +35.1
18 16.06 штиль 0 7000 м дымка ясно +32.5 +28.8 81 +55 +55 опасность
перегрева
999.9 999.5
21 16.06 штиль 0 10 км ясно +31.3 +26.1 74 +47 +47 опасность
перегрева
998.9 998.5
00 17.06 штиль 0 10 км ясно +29.6 +25.3 78 +43 +43 опасность
перегрева
997.7 997.3
03 17.06 СЗ 3 8000 м мгла 1/0
[Ci fib]
+36.6 +15.1 28 +38 +40 очень
душно
997.9 997.5 +28.6
06 17.06 СЗ 4 8000 м пыль ясно +47.2 +30.1 40 +71 +81 опасность
перегрева
999.0 998.6
09 17.06 ЮВ 6 8000 м пыль ясно +35.5 +31.2 79 +67 +76 опасность
перегрева
999.4 999.0
12 17.06 ЮВ 7 8000 м дымка ясно +35.4 +30.1 74 +62 +65 опасность
перегрева
998.1 997.7
15 17.06 Ю 2 8000 м мгла ясно +34.3 +30.1 79 +62 +62 опасность
перегрева
998.6 998.2 +49.1
18 17.06 СВ 2 7000 м дымка ясно +33.0 +30.9 89 +63 +63 опасность
перегрева
999.2 998.8
21 17.06 СЗ 7 8000 м мгла ясно +40.7 +15.4 23 +42 +42 опасность
перегрева
998.2 997.8
00 18.06 СЗ 7 8000 м пыльный позёмок ясно +40.7 +15.4 23 +42 +42 опасность
перегрева
998.3 997.8
03 18.06 СЗ 6 8000 м пыль 4/0
[Ci fib]
+38.4 +9.8 18 +37 +38 очень
жарко
998.8 998.4 +31.4
06 18.06 СЗ 5 8000 м пыль 4/0
[Ci fib]
+43.9 +30.1 47 +68 +75 опасность
перегрева
999.9 999.5
09 18.06 СЗ 7 6000 м пыльный позёмок ясно +48.2 +12.6 13 +48 +54 опасность
перегрева
998.6 998.2
12 18.06 СЗ 10 8000 м пыльный позёмок ясно +47.7 +30.1 39 +71 +72 опасность
перегрева
997.4 997.0
15 18.06 СЗ 7 10 км ясно +43.1 +10.8 15 +42 +42 опасность
перегрева
997.9 997.5 +48.1
18 18.06 СЗ 7 10 км ясно +39.7 +13.9 22 +40 +40 очень
душно
998.7 998.3
21 18.06 СЗ 7 10 км ясно +38.9 +13.3 22 +39 +39 очень
жарко
997.1 996.7
00 19.06 СЗ 8 10 км ясно +37.7 +13.0 23 +38 +38 очень
жарко
995.9 995.5
03 19.06 СЗ 7 10 км ясно +36.0 +12.2 24 +36 +36 очень
жарко
996.3 995.9 +35.3
06 19.06 СЗ 9 6000 м пыльный позёмок ясно +41.4 +30.2 54 +67 +69 опасность
перегрева
996.9 996.5
09 19.06 СЗ 7 8000 м пыльный позёмок ясно +45.1 +13.4 16 +45 +51 опасность
перегрева
996.3 995.9
12 19.06 СЗ 7 8000 м пыльный позёмок ясно +45.0 +30.1 44 +68 +71 опасность
перегрева
995.1 994.7
15 19.06 СЗ 7 8000 м пыльный позёмок ясно +41.7 +12.5 18 +41 +41 опасность
перегрева
995.8 995.4 +45.4
18 19.06 СЗ 8 8000 м пыльный позёмок ясно +37.7 +14.3 25 +38 +38 очень
жарко
997.1 996.7
21 19.06 СЗ 8 8000 м пыльный позёмок ясно +35.9 +13.9 27 +37 +37 душно 996.5 996.1
00 20.06 СЗ 9 8000 м пыльный позёмок ясно +34.0 +14.9 32 +36 +36 душно 996.1 995.7

 

Местоположение метеостанции Бендер-Дейер (Иран): широта 27.83 долгота 51.93 высота над уровнем моря 4 м.

В архиве по умолчанию представлена погода в Бендер-Дейере за последнюю неделю. Архивные данные за месяц целиком и за предыдущие месяцы, начиная с января 2011 года, Вы можете получить, выбрав интересующий диапазон дат из раскрывающегося списка и нажав кнопку "Ввод!".


*Определитесь, кто Вы:
робот инопланетянин человек

Внимание! Время в таблицах - всемирное. Для получения местного времени необходимо прибавить поправку, которая равна 3.5 ч.

Смотрите также архив погоды в соседних городах и на ближайших метеорологических станциях:

Погода в Бушире (Иран) (163 км)
Погода в Бушир аэропорту (Иран) (167 км)
Погода в Ширазе (Иран) (198 км)
Погода в Фесе (Иран) (213 км)
Погода в Бахрейне (Бахрейн) (215 км)
Погода на Харке (Иран) (224 км)
Погода в Дахране (Саудовская Аравия) (246 км)
Погода на Острове Киш (Иран) (251 км)
Погода в Эд-Даммаме (Саудовская Аравия) (259 км)
Погода в Аэропорту Хамад (Катар) (287 км)

Пояснения к столбцам:

Ветер - указаны скорость ветра в м/с - средняя за 10 мин, порывы в срок и между сроками (в фигурных скобках) и направление, откуда дует ветер: С - северный, СВ - северо-восточный, В - восточный, ЮВ - юго-восточный, Ю - южный, ЮЗ - юго-западный, З - западный, СЗ - северо-западный.
Видимость - горизонтальная дальность видимости в метрах или километрах. При видимости от 1 до 10 км при отсутствии осадков обычно наблюдается дымка, при ухудшении видимости до 1 км и менее - туман. В сухую погоду видимость может ухудшаться дымом, пылью или мглою.
Явления - указаны атмосферные явления, наблюдавшиеся в срок или в последний час перед сроком; фигурными скобками обозначены явления, наблюдавшиеся между сроками (за 1-3 часа до срока); квадратными скобками обозначены град или гололедные отложения с указанием их диаметра в мм.
Облачность - указаны через наклонную черту общая и нижняя облачность в баллах и высота нижней границы облаков в метрах; квадратными скобками обозначены формы облаков: Ci - перистые, Cs - перисто-слоистые, Cc - перисто-кучевые, Ac - высококучевые, As - высокослоистые, Sc - слоисто-кучевые, Ns - слоисто-дождевые, Cu - кучевые, Cb - кучево-дождевые. Подробнее классификацию облаков см. в Атласе облаков (PDF).
T - Температура воздуха - температура, измеренная на высоте 2 м над землей.
Td - Температура точки росы - температура, при понижении до которой содержащийся в воздухе водяной пар достигнет насыщения.
f - Относительная влажность воздуха - влажноcть воздуха, измеренная на высоте 2 м над землей.
Te - Эффективная температура - температура, которую ощущает одетый по сезону человек в тени. Характеристика душности погоды. При расчете учитывается влияние влажности воздуха и скорости ветра на теплоощущения человека.
Tes - Эффективная температура на солнце - температура, которую ощущает человек, с поправкой на солнечный нагрев. Характеристика знойности погоды. Зависит от высоты солнца над горизонтом, облачности и скорости ветра. Ночью, в пасмурную погоду, а также при ветре 12 м/с и более поправка равна нулю.
P - Атмосферное давление - приведенное к уровню моря атмосферное давление.
Po - Атмосферное давление - измеренное на уровне метеостанции атмосферное давление.
Tmin - Минимальная температура - минимум температуры воздуха на высоте 2 м над землей.
Tmax - Максимальная температура - максимум температуры воздуха на высоте 2 м над землей.
R - Количество осадков - Количество выпавших осадков за период времени, мм. При наведении курсора мыши на число - период времени, за который выпало указанное количество осадков.
R24 - Количество осадков - Количество выпавших осадков за 24 часа, мм.
S - Снежный покров - Высота снежного покрова, см. При наведении курсора мыши на число - состояние снежного покрова и степень покрытия местности в баллах.